Lapse_Rate
6.6 7.5 7.9 8.3 8.5 8.6 9.1 8.9 8.3 8.2 7.7 7.5 7.3 7.5 7.0 6.6 6.3 5.8 5.3 5.2 4.8 5.5 5.4 5.3 5.1 5.0 5.0 4.9 5.8 5.7 5.8 5.8 5.6 5.7 5.6 5.5 5.4 5.5 5.6 5.7 5.8 5.7 5.7
6.9 7.5 7.8 8.1 8.2 8.5 8.9 8.7 8.5 8.1 7.7 7.2 7.3 7.4 6.9 6.4 6.0 5.6 5.3 5.2 4.8 5.1 5.3 5.1 5.0 4.8 4.9 5.0 5.5 5.7 5.8 5.4 5.6 5.5 5.4 5.5 5.5 5.6 5.7 5.7 5.7 5.7 5.6
7.1 7.5 7.9 8.1 8.3 8.5 8.8 8.8 8.5 8.0 7.5 7.2 7.4 7.1 6.7 6.4 5.8 5.7 5.7 5.3 5.1 5.2 5.1 5.1 5.1 5.0 4.9 5.7 5.9 5.9 5.7 5.7 5.6 5.5 5.3 5.5 5.5 5.6 5.6 5.8 5.7 5.8 5.8
7.0 7.6 8.0 8.2 8.4 8.8 8.7 8.7 8.3 7.9 7.5 7.4 7.3 7.0 6.7 6.7 6.3 5.7 5.5 5.2 5.0 5.1 5.3 5.2 5.1 5.2 5.3 5.4 5.7 5.9 5.8 5.5 5.6 5.6 5.6 5.5 5.4 5.3 5.3 5.4 5.7 5.6 5.5
7.3 7.7 8.2 8.6 8.7 8.8 8.8 8.5 8.1 7.9 7.5 7.4 7.4 6.8 6.7 6.6 6.4 5.8 5.3 5.1 4.9 4.9 5.2 5.0 4.9 5.3 5.3 5.8 5.9 5.6 5.3 5.1 5.4 5.2 5.2 5.4 5.5 5.4 5.6 5.7 5.6 5.5 5.5
7.6 7.9 8.4 9.0 8.7 8.8 8.7 8.4 8.0 7.8 7.4 7.6 7.4 6.7 6.5 6.5 6.2 5.8 5.8 5.4 4.9 4.9 4.2 4.8 5.2 5.3 5.9 5.8 5.4 5.2 5.0 5.1 5.0 5.0 4.6 5.0 5.1 5.3 5.4 5.5 5.4 5.5 5.6
7.7 8.2 8.8 8.8 8.8 9.0 8.6 8.4 7.9 7.7 7.5 7.5 7.4 6.7 6.4 6.3 6.3 5.8 5.8 5.1 5.1 5.1 4.8 4.8 4.7 4.9 5.2 5.3 4.8 4.8 4.8 4.5 4.0 4.2 4.4 4.9 4.9 4.8 5.0 5.1 5.3 5.4 5.5
8.0 8.1 8.5 8.6 8.6 8.9 8.7 8.3 7.9 7.6 7.6 7.6 7.5 6.9 6.4 6.1 6.1 5.7 5.6 5.5 5.0 4.8 4.9 4.9 4.8 4.9 5.1 5.1 5.0 5.1 4.5 3.8 4.3 3.8 4.1 4.3 4.5 4.4 4.6 4.9 5.0 5.0 5.2
8.1 8.2 8.4 8.5 8.6 8.9 8.9 8.5 7.8 7.5 7.6 7.7 7.6 7.2 6.7 6.2 6.0 5.9 5.4 5.3 4.9 5.0 5.0 5.0 4.8 4.9 5.0 4.9 5.1 5.0 5.0 4.9 4.8 4.8 4.0 4.1 4.2 4.2 4.4 4.7 4.8 5.1 5.0
8.4 8.7 8.6 8.6 8.6 9.0 8.8 8.4 7.6 7.4 7.6 7.6 7.5 7.3 6.9 6.5 6.0 5.8 5.4 5.3 5.5 5.4 5.1 5.3 5.1 5.2 5.1 5.1 5.2 5.1 5.1 5.1 5.2 5.1 4.8 4.6 4.7 4.8 4.5 4.4 5.0 5.1 4.9
8.6 8.9 8.8 9.0 8.9 8.8 8.6 8.1 7.6 7.5 7.6 7.5 7.4 7.3 7.0 6.7 6.2 5.9 5.6 5.6 5.6 5.6 5.4 5.6 5.8 5.9 5.6 5.5 5.5 5.5 5.4 5.6 5.5 5.3 5.1 4.9 4.9 5.1 5.2 5.4 4.9 4.7 4.8
8.3 8.5 8.8 8.9 8.9 8.9 8.5 8.1 7.6 7.5 7.5 7.4 7.3 7.3 7.2 6.9 6.4 6.0 5.9 6.0 6.0 5.9 5.9 5.9 5.7 5.8 5.6 5.4 5.5 5.4 5.9 5.5 5.2 5.1 5.0 5.0 5.0 5.1 5.0 5.3 5.2 5.3 5.3
8.1 8.7 8.8 9.0 8.8 8.7 8.4 7.8 7.5 7.5 7.5 7.5 7.3 7.3 7.2 6.9 6.8 6.5 6.3 6.2 6.1 6.1 6.1 5.9 5.8 5.6 5.5 5.6 5.5 5.4 5.2 5.2 5.0 5.0 5.2 5.2 5.3 5.3 5.3 5.2 5.2 5.1 5.1
7.8 8.2 8.1 8.4 8.5 8.4 8.1 7.6 7.4 7.4 7.5 7.5 7.4 7.3 7.3 7.2 7.0 6.7 6.6 6.5 6.5 6.4 6.2 6.0 5.8 5.7 5.6 5.6 5.5 5.5 5.3 5.2 5.4 5.3 5.3 5.4 5.4 5.5 5.4 5.3 5.2 5.2 5.2
6.5 6.6 8.4 8.0 8.0 7.9 7.8 7.4 7.2 7.5 7.5 7.5 7.5 7.5 7.5 7.5 7.4 7.3 7.1 7.0 6.8 6.7 6.6 6.6 6.5 6.3 6.2 6.1 6.0 5.9 5.9 5.9 5.8 5.8 5.9 5.9 6.0 6.0 5.9 5.7 6.0 5.8 5.7
6.3 6.2 7.2 7.6 8.1 8.1 7.8 7.5 7.5 7.5 7.5 7.7 7.7 7.7 7.7 7.6 7.6 7.6 7.6 7.5 7.4 7.4 7.4 7.3 7.1 6.8 6.5 6.5 6.3 6.2 6.2 6.3 6.4 6.5 6.5 6.2 6.1 6.1 6.1 5.8 5.6 5.5 5.5
6.5 6.4 6.5 7.3 7.5 7.7 7.5 7.3 7.2 7.4 7.5 7.5 7.6 7.7 7.7 7.7 7.7 7.6 7.6 7.6 7.5 7.5 7.5 7.4 7.4 7.0 7.0 7.1 7.1 7.1 7.0 7.0 7.0 6.8 6.6 6.5 6.5 6.3 6.1 6.2 6.2 6.4 6.3
6.2 6.3 6.3 6.5 7.4 7.5 7.1 6.9 6.5 6.4 6.6 6.7 6.9 7.1 7.3 7.5 7.5 7.4 7.4 7.4 7.4 7.3 7.3 7.1 7.0 7.0 7.3 7.3 7.1 7.0 7.0 6.9 6.6 6.4 6.4 6.1 6.1 6.1 6.3 6.3 6.4 6.2 6.3
5.8 6.2 6.3 6.4 6.6 6.6 6.5 6.2 6.1 5.9 6.2 6.3 6.8 7.3 7.5 7.5 7.4 7.3 7.3 7.3 7.4 7.3 7.3 7.2 7.2 7.0 7.1 7.2 7.2 7.1 6.9 6.5 6.3 6.2 6.0 6.0 6.1 6.3 6.2 6.6 6.3 5.9 5.8
4.6 5.2 5.6 6.0 6.2 6.1 6.1 5.6 5.4 5.7 5.9 5.9 6.9 7.1 7.2 7.2 7.1 7.0 7.1 7.0 6.9 6.9 7.1 7.1 7.2 7.2 7.0 6.9 7.0 7.1 6.9 6.4 6.2 6.6 6.3 6.4 6.2 6.1 6.0 6.3 6.1 6.2 5.9
5.1 3.9 4.7 5.0 5.1 5.4 5.6 5.6 5.3 5.5 5.6 5.5 6.2 6.8 6.9 7.0 7.0 7.0 7.0 6.9 6.7 6.6 6.9 6.8 6.8 6.9 6.9 6.9 7.0 6.9 7.1 6.9 6.5 6.2 6.2 6.1 6.1 6.1 6.4 6.2 6.3 6.1 6.1
4.9 4.7 4.5 4.3 4.3 4.3 4.6 4.4 4.4 5.0 5.4 5.4 5.8 6.2 6.6 6.5 6.6 6.6 6.6 6.5 6.5 6.4 6.5 6.5 6.5 6.6 6.7 6.7 6.7 6.7 6.7 6.7 6.7 6.6 6.5 6.3 6.2 5.9 5.8 5.8 6.1 6.3 6.4
4.4 4.4 4.5 4.2 4.2 4.2 4.2 4.2 4.2 4.4 5.0 5.3 5.5 5.8 5.8 5.7 5.8 6.1 6.2 6.1 6.1 6.2 6.2 6.3 6.4 6.5 6.5 6.5 6.6 6.6 6.6 6.5 6.3 6.2 6.1 6.1 6.0 6.1 6.2 6.3 6.3 6.3 6.2
4.0 4.3 4.5 4.4 4.1 4.0 3.8 4.0 4.0 4.6 4.9 5.2 5.4 5.6 5.6 5.8 6.0 6.3 6.2 6.1 6.1 6.2 6.3 6.4 6.3 6.3 6.5 6.5 6.5 6.4 6.3 6.2 6.1 6.1 6.1 6.2 6.1 6.1 6.1 6.0 6.0 5.9 5.8
4.2 4.4 4.7 4.7 4.7 4.6 4.5 4.5 4.7 4.9 5.3 5.5 5.6 5.5 5.7 5.9 6.0 6.1 6.1 6.2 6.3 6.3 6.3 6.3 6.4 6.2 6.0 6.1 6.0 6.1 6.1 6.1 6.1 6.1 6.0 5.9 5.8 5.8 5.6 5.4 5.2 5.0 4.8
4.5 4.5 4.5 4.8 5.0 5.1 5.2 5.0 5.0 5.1 5.2 5.4 5.5 5.6 5.8 5.9 5.9 5.8 5.8 6.0 6.1 6.0 6.0 5.9 5.8 5.8 5.9 6.0 6.0 6.0 6.0 6.0 5.9 5.8 5.6 5.5 5.4 5.2 5.0 4.8 4.6 4.4 4.1
Wind_Speed
18 14 10 8 12 15 17 18 17 15 10 8 8 8 7 7 7 8 13 16 12 17 12 10 12 11 12 14 14 12 14 10 11 10 6 5 5 7 8 12 13 14 15
18 15 8 9 14 15 16 17 17 16 13 10 7 3 4 6 7 8 12 17 18 14 11 12 12 13 11 14 14 14 10 9 12 8 9 5 3 6 7 8 9 13 14
19 15 11 12 14 16 17 18 17 16 13 12 7 4 3 1 6 7 7 13 18 17 15 15 13 14 11 13 15 14 15 9 12 12 7 5 5 6 6 11 9 11 9
19 15 13 14 16 14 14 17 15 15 13 13 11 12 7 7 3 5 5 8 12 14 16 16 15 14 11 13 13 11 11 10 13 9 2 3 6 6 5 5 10 10 11
19 16 13 14 15 15 13 15 15 13 13 11 10 8 8 4 5 2 11 13 10 10 14 14 14 13 10 12 13 12 11 9 10 10 5 3 3 4 2 4 7 9 10
15 9 11 14 16 15 13 14 14 14 13 11 11 11 10 7 4 4 8 8 8 8 11 11 12 11 11 12 12 11 12 10 9 8 8 7 5 4 3 2 5 10 8
8 9 14 14 17 17 15 15 15 15 13 11 10 10 10 9 9 5 7 11 9 8 11 13 11 9 10 9 9 10 10 10 9 11 9 7 7 4 5 4 3 5 5
14 7 12 16 17 18 15 17 17 16 13 11 10 9 9 6 5 6 4 7 8 9 10 10 9 9 7 6 5 7 9 9 8 12 9 7 6 5 5 4 4 3 5
15 12 14 15 17 19 16 16 17 15 13 11 9 9 9 8 7 7 6 4 9 10 13 14 12 13 11 10 8 6 9 10 10 11 10 8 6 5 6 5 6 9 10
20 9 12 15 14 15 13 13 14 15 14 11 9 8 7 7 7 6 7 7 6 10 13 14 14 13 14 15 14 9 6 9 10 8 10 7 6 6 4 7 8 8 10
14 2 6 12 14 12 12 12 12 13 13 11 13 10 8 6 6 7 7 8 8 9 10 11 12 14 15 16 14 13 9 9 9 8 8 9 7 5 5 5 4 7 7
12 5 6 10 11 11 12 12 11 14 12 11 12 11 11 9 7 7 8 8 10 11 13 11 10 10 10 12 14 17 15 12 11 10 11 13 7 12 12 8 11 11 12
13 4 6 7 10 10 11 12 14 14 13 13 12 10 9 11 10 9 8 8 8 9 9 11 12 13 11 10 12 13 14 13 13 12 12 13 12 13 11 13 12 11 10
17 14 5 7 9 9 10 10 12 12 12 12 11 11 10 10 11 10 10 9 9 10 11 11 12 12 13 14 13 12 12 12 11 12 13 14 15 18 15 12 13 13 11
17 16 14 11 9 8 8 8 8 9 10 10 10 9 9 8 7 8 9 10 11 11 11 11 12 12 11 10 13 13 12 12 12 13 14 17 17 16 16 11 16 16 13
14 14 15 15 13 13 10 11 9 6 8 6 3 4 5 6 7 7 7 7 8 8 9 10 11 10 7 10 14 11 10 12 13 13 14 14 12 14 16 17 20 18 16
12 14 14 13 12 12 11 12 12 13 12 12 10 10 9 9 8 2 3 5 6 7 7 8 9 8 5 13 7 6 12 10 11 12 11 11 10 13 15 18 19 20 20
11 12 11 13 13 12 13 13 14 13 12 12 12 11 10 10 10 9 9 8 8 10 8 10 9 11 10 13 10 8 8 9 8 6 8 7 7 9 7 7 7 3 9
8 9 10 12 12 15 13 16 14 14 12 14 13 11 10 11 11 11 10 8 10 11 11 10 12 11 12 18 13 6 1 6 9 11 13 9 7 11 8 2 3 7 8
12 10 11 12 14 13 15 16 16 15 16 14 11 11 12 13 13 11 11 10 11 11 9 12 12 14 12 20 17 10 4 8 7 10 11 20 14 17 13 3 3 7 4
11 10 14 14 14 12 14 19 16 15 15 13 12 13 13 14 12 11 10 10 10 10 10 12 11 13 14 16 23 18 9 7 8 8 9 9 20 23 24 21 12 10 11
14 13 14 13 15 16 15 15 15 12 13 13 14 13 15 11 10 13 11 11 10 10 10 10 9 9 10 20 23 23 20 15 10 10 8 11 23 25 24 18 22 21 12
13 14 13 13 15 16 15 14 13 11 12 14 13 13 15 13 13 13 12 10 11 9 9 8 8 8 8 9 19 22 22 20 12 9 15 18 19 21 19 23 20 14 9
16 15 16 17 16 14 14 13 10 10 11 13 13 13 14 14 14 11 10 9 9 9 9 9 9 9 9 8 7 7 8 12 11 12 11 13 14 15 13 12 13 10 9
14 13 14 14 15 15 14 12 11 9 10 10 11 10 10 14 14 15 11 11 13 12 10 9 9 8 9 9 13 11 7 7 8 9 8 9 9 9 9 9 10 8 8
13 12 13 12 12 12 13 12 11 9 9 9 8 8 8 9 9 10 12 26 25 26 25 21 13 10 16 17 18 17 17 15 11 10 9 9 9 9 8 8 8 8 9
Wind_Direction
274 275 267 222 194 184 178 180 171 171 161 174 181 195 196 194 193 188 184 187 189 177 168 157 155 158 171 169 160 156 160 162 164 142 146 134 169 190 194 196 195 200 203
262 265 243 200 199 184 179 174 175 167 177 183 179 183 181 201 196 196 196 188 191 189 165 158 161 162 172 160 162 159 157 152 170 173 154 162 176 212 205 207 207 208 208
250 256 226 206 199 189 181 177 171 165 175 176 172 158 147 173 195 204 201 193 189 185 170 162 164 167 167 169 170 166 168 157 178 175 156 161 192 167 192 213 215 210 217
245 247 226 206 200 187 176 173 169 167 173 176 183 194 204 208 205 204 171 161 179 176 161 168 165 164 167 172 173 170 171 162 172 185 220 183 141 183 178 212 218 218 220
247 243 216 204 188 173 166 171 166 167 169 166 180 186 200 202 184 183 161 154 148 148 155 153 156 160 163 167 169 168 172 179 172 182 170 161 159 144 151 177 201 220 220
260 237 194 176 174 173 163 164 159 170 166 172 181 188 189 175 161 159 147 142 141 142 141 144 148 154 156 161 168 166 171 165 179 190 193 176 172 178 164 158 192 216 205
298 183 178 177 175 173 170 161 168 167 166 171 172 174 174 174 166 154 157 147 142 143 146 140 144 147 141 141 153 168 175 174 181 195 200 199 199 174 196 196 177 206 203
325 240 197 179 183 174 174 168 170 166 164 165 161 165 164 159 157 149 136 155 149 151 147 136 135 123 122 126 147 182 183 175 188 203 207 208 208 200 193 189 189 209 209
318 278 206 187 183 176 173 173 169 160 162 167 155 157 155 151 155 154 143 139 147 151 155 158 159 166 174 181 183 202 199 183 190 209 204 211 210 210 220 235 242 240 247
329 282 196 183 180 176 161 158 165 162 160 166 156 158 154 151 155 142 144 147 131 151 163 162 170 175 178 189 197 208 216 208 213 200 187 187 204 216 210 239 243 255 254
350 24 180 171 171 155 156 154 160 159 154 170 164 159 160 149 152 164 165 153 147 151 163 167 171 173 178 192 200 210 213 215 211 194 183 198 183 210 214 207 221 254 240
347 43 142 151 152 149 148 155 159 159 160 165 163 161 159 164 174 181 182 171 173 173 172 172 175 180 184 188 191 207 216 211 213 209 209 223 212 228 231 225 229 233 240
352 45 105 130 138 144 150 155 161 158 159 164 170 172 166 167 175 178 175 183 182 183 183 184 189 185 185 182 191 200 204 207 212 207 208 217 216 225 231 231 233 237 244
8 12 93 116 129 133 138 157 160 158 158 167 177 174 175 179 178 177 179 184 189 188 193 196 200 201 201 203 198 196 201 206 213 216 214 222 221 227 228 229 232 239 239
14 17 17 44 70 96 107 133 141 150 152 167 185 188 175 174 179 184 183 186 190 196 197 199 204 206 207 208 207 206 206 210 218 220 223 230 233 229 228 228 236 237 239
15 20 22 30 41 49 61 61 47 135 139 137 142 177 176 183 189 186 184 186 190 195 195 203 207 208 211 208 205 210 218 223 229 236 239 243 231 236 232 233 243 247 246
17 22 25 24 33 46 49 61 62 58 64 70 56 50 55 64 53 47 191 204 205 192 196 203 199 196 103 10 12 251 236 232 234 237 240 238 234 231 240 236 238 250 251
23 23 22 31 33 42 56 56 58 64 59 60 52 43 52 54 49 51 50 45 55 47 53 42 40 84 45 17 4 334 228 240 261 22 29 19 11 35 359 334 310 7 52
31 30 25 32 41 45 48 59 53 60 63 56 46 41 51 60 54 49 44 50 69 64 61 56 55 57 37 15 7 2 19 88 76 65 45 33 25 2 354 299 125 105 88
60 28 34 35 37 46 56 60 56 47 47 45 37 41 49 55 57 53 53 56 71 79 75 66 59 52 41 24 24 25 68 91 82 65 53 42 46 38 30 49 148 107 108
45 44 42 37 28 35 48 60 53 52 52 52 48 48 53 56 56 58 55 62 68 72 70 72 58 55 45 39 42 44 65 81 81 71 60 52 55 58 59 60 70 87 95
40 35 51 37 30 33 47 59 55 48 58 56 52 50 54 51 57 65 61 61 69 71 65 69 63 52 49 52 54 59 66 75 81 78 73 68 64 64 64 67 72 76 80
44 41 47 49 36 34 29 46 46 48 60 65 56 56 59 57 55 58 59 58 57 63 62 60 62 61 59 58 56 64 66 70 78 80 82 77 69 66 62 63 65 66 69
41 39 41 40 35 32 33 31 34 49 59 66 64 56 61 64 59 57 54 56 55 60 63 65 62 55 53 53 55 63 72 75 79 76 67 70 72 68 66 59 56 59 59
45 44 46 45 41 36 37 27 27 48 67 68 71 71 66 68 68 62 59 64 58 62 72 62 66 66 59 52 63 66 71 75 73 85 71 62 60 60 56 56 52 48 50
51 52 51 52 45 43 41 35 29 47 71 73 68 67 71 72 72 77 73 57 62 61 61 60 61 61 65 65 66 67 67 68 74 73 69 62 57 57 54 52 50 45 43